Time,TemperatureF,DewpointF,PressureIn,WindDirection,WindDirectionDegrees,WindSpeedMPH,WindSpeedGustMPH,Humidity,HourlyPrecipIn,Conditions,Clouds,dailyrainin,SoftwareType,DateUTC
2016-02-13 00:04:00,20.0,15.0,30.26,West,264,0.0,9.0,79,-99.99,,,-99.99,,2016-02-13 05:04:00,
2016-02-13 00:13:00,20.0,15.0,30.26,West,264,0.0,-999.0,79,-99.99,,,-99.99,,2016-02-13 05:13:00,
2016-02-13 00:24:00,19.0,13.0,30.26,NW,312,1.0,9.0,78,-99.99,,,-99.99,,2016-02-13 05:24:00,
2016-02-13 00:36:00,19.0,14.0,30.27,NW,306,0.0,7.0,79,-99.99,,,-99.99,,2016-02-13 05:36:00,
2016-02-13 00:44:00,19.0,14.0,30.27,NW,306,0.0,7.0,79,-99.99,,,-99.99,,2016-02-13 05:44:00,
2016-02-13 00:55:00,19.0,13.0,30.27,NNE,20,0.0,7.0,78,-99.99,,,-99.99,,2016-02-13 05:55:00,
2016-02-13 01:04:00,19.0,13.0,30.27,ENE,69,4.0,12.0,77,-99.99,,,-99.99,,2016-02-13 06:04:00,
2016-02-13 01:13:00,19.0,13.0,30.27,ENE,69,4.0,12.0,77,-99.99,,,-99.99,,2016-02-13 06:13:00,
2016-02-13 01:34:00,18.0,13.0,30.29,NNE,32,2.0,14.0,80,-99.99,,,-99.99,,2016-02-13 06:34:00,
2016-02-13 01:44:00,18.0,13.0,30.29,NNE,32,2.0,14.0,80,-99.99,,,-99.99,,2016-02-13 06:44:00,
2016-02-13 01:54:00,17.0,12.0,30.29,North,1,1.0,11.0,79,-99.99,,,-99.99,,2016-02-13 06:54:00,
2016-02-13 02:04:00,17.0,12.0,30.29,NW,315,1.0,6.0,82,-99.99,,,-99.99,,2016-02-13 07:04:00,
2016-02-13 02:13:00,17.0,12.0,30.29,NW,315,1.0,6.0,82,-99.99,,,-99.99,,2016-02-13 07:13:00,
2016-02-13 02:24:00,17.0,13.0,30.30,WNW,287,0.0,3.0,83,-99.99,,,-99.99,,2016-02-13 07:24:00,
2016-02-13 02:34:00,17.0,13.0,30.30,SSE,151,0.0,7.0,83,-99.99,,,-99.99,,2016-02-13 07:34:00,
2016-02-13 02:44:00,17.0,13.0,30.30,SSE,151,0.0,7.0,83,-99.99,,,-99.99,,2016-02-13 07:44:00,
2016-02-13 02:54:00,16.0,11.0,30.31,NE,40,2.0,7.0,80,-99.99,,,-99.99,,2016-02-13 07:54:00,
2016-02-13 03:04:00,16.0,9.0,30.32,North,359,3.0,7.0,74,-99.99,,,-99.99,,2016-02-13 08:04:00,
2016-02-13 03:13:00,16.0,9.0,30.32,North,359,3.0,7.0,74,-99.99,,,-99.99,,2016-02-13 08:13:00,
2016-02-13 03:23:00,15.0,7.0,30.32,NE,55,0.0,5.0,70,-99.99,,,-99.99,,2016-02-13 08:23:00,
2016-02-13 03:36:00,15.0,7.0,30.33,NW,326,1.0,5.0,69,-99.99,,,-99.99,,2016-02-13 08:36:00,
2016-02-13 03:44:00,15.0,7.0,30.33,NW,326,1.0,5.0,69,-99.99,,,-99.99,,2016-02-13 08:44:00,
2016-02-13 03:54:00,15.0,7.0,30.33,ESE,109,1.0,10.0,70,-99.99,,,-99.99,,2016-02-13 08:54:00,
2016-02-13 04:03:00,15.0,7.0,30.34,SE,141,0.0,3.0,70,-99.99,,,-99.99,,2016-02-13 09:03:00,
2016-02-13 04:13:00,15.0,7.0,30.34,SE,141,0.0,3.0,70,-99.99,,,-99.99,,2016-02-13 09:13:00,
2016-02-13 04:23:00,14.0,6.0,30.35,SSW,206,4.0,4.0,70,-99.99,,,-99.99,,2016-02-13 09:23:00,
2016-02-13 04:44:00,14.0,5.0,30.35,North,354,1.0,6.0,67,-99.99,,,-99.99,,2016-02-13 09:44:00,
2016-02-13 05:04:00,13.0,4.0,30.37,West,268,0.0,5.0,66,-99.99,,,-99.99,,2016-02-13 10:04:00,
2016-02-13 05:13:00,13.0,4.0,30.37,West,268,0.0,5.0,66,-99.99,,,-99.99,,2016-02-13 10:13:00,
2016-02-13 05:24:00,13.0,4.0,30.37,West,274,2.0,3.0,67,-99.99,,,-99.99,,2016-02-13 10:24:00,
2016-02-13 05:36:00,13.0,4.0,30.38,NE,45,1.0,8.0,67,-99.99,,,-99.99,,2016-02-13 10:36:00,
2016-02-13 05:44:00,13.0,4.0,30.38,NE,45,1.0,8.0,67,-99.99,,,-99.99,,2016-02-13 10:44:00,
2016-02-13 05:54:00,13.0,4.0,30.39,NE,34,1.0,4.0,67,-99.99,,,-99.99,,2016-02-13 10:54:00,
2016-02-13 06:04:00,12.0,3.0,30.40,WSW,244,1.0,7.0,67,-99.99,,,-99.99,,2016-02-13 11:04:00,
2016-02-13 06:24:00,12.0,4.0,30.40,SW,229,0.0,6.0,68,-99.99,,,-99.99,,2016-02-13 11:24:00,
2016-02-13 06:34:00,12.0,4.0,30.41,SW,229,0.0,3.0,68,-99.99,,,-99.99,,2016-02-13 11:34:00,
2016-02-13 06:44:00,12.0,4.0,30.41,SW,229,0.0,3.0,68,-99.99,,,-99.99,,2016-02-13 11:44:00,
2016-02-13 07:04:00,12.0,4.0,30.42,NNE,21,1.0,6.0,70,-99.99,,,-99.99,,2016-02-13 12:04:00,
2016-02-13 07:14:00,12.0,4.0,30.42,NNE,21,1.0,6.0,70,-99.99,,,-99.99,,2016-02-13 12:14:00,
2016-02-13 07:24:00,11.0,3.0,30.43,West,270,0.0,3.0,70,-99.99,,,-99.99,,2016-02-13 12:24:00,
2016-02-13 07:34:00,11.0,3.0,30.44,NE,42,0.0,6.0,70,-99.99,,,-99.99,,2016-02-13 12:34:00,
2016-02-13 07:46:00,12.0,4.0,30.44,ENE,78,2.0,2.0,71,-99.99,,,-99.99,,2016-02-13 12:46:00,
2016-02-13 08:04:00,12.0,4.0,30.45,WSW,241,2.0,5.0,71,-99.99,,,-99.99,,2016-02-13 13:04:00,
2016-02-13 08:13:00,12.0,4.0,30.45,WSW,241,2.0,5.0,71,-99.99,,,-99.99,,2016-02-13 13:13:00,
2016-02-13 08:24:00,12.0,5.0,30.45,ENE,76,0.0,8.0,72,-99.99,,,-99.99,,2016-02-13 13:24:00,
2016-02-13 08:34:00,12.0,5.0,30.46,ENE,61,0.0,6.0,72,-99.99,,,-99.99,,2016-02-13 13:34:00,
2016-02-13 08:44:00,12.0,5.0,30.46,ENE,61,0.0,6.0,72,-99.99,,,-99.99,,2016-02-13 13:44:00,
2016-02-13 08:54:00,12.0,5.0,30.47,ENE,65,0.0,6.0,72,-99.99,,,-99.99,,2016-02-13 13:54:00,
2016-02-13 09:04:00,11.0,4.0,30.47,ENE,66,0.0,2.0,73,-99.99,,,-99.99,,2016-02-13 14:04:00,
2016-02-13 09:13:00,11.0,4.0,30.47,ENE,66,0.0,2.0,73,-99.99,,,-99.99,,2016-02-13 14:13:00,
2016-02-13 09:24:00,12.0,4.0,30.48,NE,40,2.0,6.0,71,-99.99,,,-99.99,,2016-02-13 14:24:00,
2016-02-13 09:34:00,13.0,4.0,30.48,ENE,59,2.0,3.0,68,-99.99,,,-99.99,,2016-02-13 14:34:00,
2016-02-13 09:44:00,13.0,4.0,30.48,ENE,59,2.0,3.0,68,-99.99,,,-99.99,,2016-02-13 14:44:00,
2016-02-13 09:54:00,13.0,2.0,30.48,NNE,21,2.0,8.0,62,-99.99,,,-99.99,,2016-02-13 14:54:00,
2016-02-13 10:03:00,14.0,3.0,30.49,NNE,28,1.0,9.0,61,-99.99,,,-99.99,,2016-02-13 15:03:00,
2016-02-13 10:13:00,14.0,3.0,30.49,NNE,28,1.0,9.0,61,-99.99,,,-99.99,,2016-02-13 15:13:00,
2016-02-13 10:23:00,14.0,1.0,30.49,North,10,2.0,10.0,55,-99.99,,,-99.99,,2016-02-13 15:23:00,
2016-02-13 10:34:00,14.0,0.0,30.50,North,11,2.0,8.0,53,-99.99,,,-99.99,,2016-02-13 15:34:00,
2016-02-13 10:44:00,14.0,0.0,30.50,North,11,2.0,8.0,53,-99.99,,,-99.99,,2016-02-13 15:44:00,
2016-02-13 11:04:00,16.0,0.0,30.50,WNW,282,0.0,3.0,49,-99.99,,,-99.99,,2016-02-13 16:04:00,
2016-02-13 11:13:00,16.0,0.0,30.50,WNW,282,0.0,-999.0,49,-99.99,,,-99.99,,2016-02-13 16:13:00,
2016-02-13 11:24:00,16.0,0.0,30.50,North,350,1.0,5.0,48,-99.99,,,-99.99,,2016-02-13 16:24:00,
2016-02-13 12:05:00,18.0,1.0,30.50,NNW,337,0.0,7.0,46,-99.99,,,-99.99,,2016-02-13 17:05:00,
2016-02-13 12:13:00,18.0,1.0,30.50,NNW,337,0.0,7.0,46,-99.99,,,-99.99,,2016-02-13 17:13:00,
2016-02-13 12:24:00,19.0,2.0,30.50,SSE,157,6.0,6.0,47,-99.99,,,-99.99,,2016-02-13 17:24:00,
2016-02-13 12:44:00,18.0,2.0,30.49,SW,217,0.0,8.0,49,-99.99,,,-99.99,,2016-02-13 17:44:00,
2016-02-13 12:55:00,18.0,3.0,30.49,SSE,151,0.0,3.0,51,-99.99,,,-99.99,,2016-02-13 17:55:00,
2016-02-13 13:04:00,19.0,4.0,30.49,WSW,240,5.0,6.0,52,-99.99,,,-99.99,,2016-02-13 18:04:00,
2016-02-13 13:13:00,19.0,4.0,30.49,WSW,240,5.0,6.0,52,-99.99,,,-99.99,,2016-02-13 18:13:00,
2016-02-13 13:24:00,19.0,3.0,30.48,WNW,289,1.0,11.0,50,-99.99,,,-99.99,,2016-02-13 18:24:00,
2016-02-13 13:35:00,19.0,4.0,30.47,SW,217,0.0,7.0,51,-99.99,,,-99.99,,2016-02-13 18:35:00,
2016-02-13 13:44:00,19.0,4.0,30.47,SW,217,0.0,7.0,51,-99.99,,,-99.99,,2016-02-13 18:44:00,
2016-02-13 13:56:00,20.0,3.0,30.47,WSW,253,2.0,7.0,47,-99.99,,,-99.99,,2016-02-13 18:56:00,
2016-02-13 14:04:00,20.0,2.0,30.47,SW,233,1.0,5.0,45,-99.99,,,-99.99,,2016-02-13 19:04:00,
2016-02-13 14:14:00,20.0,2.0,30.47,SW,233,1.0,5.0,45,-99.99,,,-99.99,,2016-02-13 19:14:00,